Satellite: NOAA-12
Catalog number: 21263
Epoch time:      06074.75123543
Element set:    0523
Inclination:      098.7253 deg
RA of node:       068.4475 deg
Eccentricity:    0.0012988
Arg of perigee:   003.7934 deg
Mean anomaly:     356.3328 deg
Mean motion:   14.25484482 rev/day
Decay rate:       -3.3e-07 rev/day^2
Epoch rev:           77093
Checksum:              312

Satellite: MET-3/5
Catalog number: 21655
Epoch time:      06075.83452237
Element set:      62
Inclination:      082.5589 deg
RA of node:       326.0527 deg
Eccentricity:    0.0012158
Arg of perigee:   274.3943 deg
Mean anomaly:     085.5746 deg
Mean motion:   13.17003662 rev/day
Decay rate:        5.1e-07 rev/day^2
Epoch rev:           70120
Checksum:              289

Satellite: MET-2/21
Catalog number: 22782
Epoch time:      06074.45573785
Element set:    0454
Inclination:      082.5478 deg
RA of node:       045.7989 deg
Eccentricity:    0.0024020
Arg of perigee:   082.8499 deg
Mean anomaly:     277.5380 deg
Mean motion:   13.83601729 rev/day
Decay rate:       -6.9e-07 rev/day^2
Epoch rev:           63308
Checksum:              343

Satellite: OKEAN-4
Catalog number: 23317
Epoch time:      06075.47016451
Element set:     890
Inclination:      082.5425 deg
RA of node:       003.4801 deg
Eccentricity:    0.0021651
Arg of perigee:   324.4907 deg
Mean anomaly:     035.4862 deg
Mean motion:   14.82321169 rev/day
Decay rate:       1.31e-06 rev/day^2
Epoch rev:           61624
Checksum:              268

Satellite: NOAA-14
Catalog number: 23455
Epoch time:      06074.73086259
Element set:    0036
Inclination:      099.0514 deg
RA of node:       131.9585 deg
Eccentricity:    0.0008730
Arg of perigee:   318.2707 deg
Mean anomaly:     041.7805 deg
Mean motion:   14.13641227 rev/day
Decay rate:      -1.41e-06 rev/day^2
Epoch rev:           57786
Checksum:              302

Satellite: SICH-1
Catalog number: 23657
Epoch time:      06074.72617778
Element set:    0697
Inclination:      082.5309 deg
RA of node:       145.0657 deg
Eccentricity:    0.0022878
Arg of perigee:   313.8832 deg
Mean anomaly:     046.0483 deg
Mean motion:   14.81321565 rev/day
Decay rate:       1.44e-06 rev/day^2
Epoch rev:           56815
Checksum:              323

Satellite: NOAA-15
Catalog number: 25338
Epoch time:      06074.96062760
Element set:    0436
Inclination:      098.5174 deg
RA of node:       080.0500 deg
Eccentricity:    0.0009742
Arg of perigee:   288.8794 deg
Mean anomaly:     071.1323 deg
Mean motion:   14.24567300 rev/day
Decay rate:        4.5e-07 rev/day^2
Epoch rev:           40744
Checksum:              296

Satellite: RESURS
Catalog number: 25394
Epoch time:      06073.29311368
Element set:    0324
Inclination:      098.5035 deg
RA of node:       139.3442 deg
Eccentricity:    0.0002350
Arg of perigee:   088.4220 deg
Mean anomaly:     271.7227 deg
Mean motion:   14.24095725 rev/day
Decay rate:       -4.2e-07 rev/day^2
Epoch rev:           39889
Checksum:              292

Satellite: FENGYUN1
Catalog number: 25730
Epoch time:      06074.57241678
Element set:    0674
Inclination:      098.6215 deg
RA of node:       070.6761 deg
Eccentricity:    0.0015368
Arg of perigee:   049.0607 deg
Mean anomaly:     311.1887 deg
Mean motion:   14.11807062 rev/day
Decay rate:      -2.56e-06 rev/day^2
Epoch rev:           35280
Checksum:              299

Satellite: OKEAN-0
Catalog number: 25860
Epoch time:      06075.64488154
Element set:     694
Inclination:      097.7395 deg
RA of node:       094.2675 deg
Eccentricity:    0.0001917
Arg of perigee:   060.9058 deg
Mean anomaly:     299.2342 deg
Mean motion:   14.73343800 rev/day
Decay rate:        7.1e-07 rev/day^2
Epoch rev:           35812
Checksum:              319

Satellite: NOAA-16
Catalog number: 26536
Epoch time:      06075.55251835
Element set:     793
Inclination:      099.0558 deg
RA of node:       041.1308 deg
Eccentricity:    0.0011083
Arg of perigee:   024.3601 deg
Mean anomaly:     335.8041 deg
Mean motion:   14.12321605 rev/day
Decay rate:      -1.57e-06 rev/day^2
Epoch rev:           28250
Checksum:              272

Satellite: NOAA-17
Catalog number: 27453
Epoch time:      06074.77466842
Element set:    0814
Inclination:      098.6298 deg
RA of node:       148.7772 deg
Eccentricity:    0.0011443
Arg of perigee:   351.2580 deg
Mean anomaly:     008.8395 deg
Mean motion:   14.23757954 rev/day
Decay rate:       -1.1e-07 rev/day^2
Epoch rev:           19348
Checksum:              337

Satellite: NOAA-18
Catalog number: 28654
Epoch time:      06075.38133765
Element set:     400
Inclination:      098.7796 deg
RA of node:       020.6845 deg
Eccentricity:    0.0014841
Arg of perigee:   121.5825 deg
Mean anomaly:     238.6792 deg
Mean motion:   14.10939488 rev/day
Decay rate:        9.5e-07 rev/day^2
Epoch rev:            4229
Checksum:              331

/EX
SB KEPS @ AMSAT  $ORB06075.M
Orbital Elements  06075.MISC

HR AMSAT ORBITAL ELEMENTS FOR MANNED AND MISCELLANEOUS SATELLITES
FROM WA5QGD FORT WORTH,TX March 16, 2006
Send SUBSCRIBE KEPS/UNSUBSCRIBE KEPS to majordomo@amsat.org only
BID: ORB06075.M
TO ALL RADIO AMATEURS BT

Satellite: HUBBLE
Catalog number: 20580
Epoch time:      06074.94673025
Element set:    0579
Inclination:      028.4689 deg
RA of node:       297.6910 deg
Eccentricity:    0.0003507
Arg of perigee:   271.8882 deg
Mean anomaly:     088.1305 deg
Mean motion:   14.99981376 rev/day
Decay rate:       4.24e-06 rev/day^2
Epoch rev:           67108
Checksum:              334

